Location: Newark
(51.7378°N, 19.8125°E)
Time: 23:25:31
(UTC+00:00)

Envisat - Pass Details

Date: 14 December 2019
Orbit: 764 x 766 km, 98.1° (Epoch: 21 January)

Event Time Altitude Azimuth Distance (km) Brightness Sun altitude
Rises 03:50:01 0° 31° (NNE) 3,246 6.6 -24.9°
Reaches altitude 10° 03:54:25 10° 67° (ENE) 2,311 6.3 -24.2°
Maximum altitude 03:55:46 11° 83° (E) 2,242 6.4 -24.0°
Drops below altitude 10° 03:57:06 10° 98° (E) 2,306 6.6 -23.8°
Sets 04:01:27 0° 134° (SE) 3,223 7.1 -23.1°
